Showing default

GLOBALSTAR M065, 31571

Orbit data source: Space-Track

GLOBALSTAR M065, 31571 is a payload satellite owned by Globalstar (US) in LEO that was launched on Tue, 29 May 2007 UTC via a SOYUZ-FG launch vehicle from the Tyuratam Missile And Space Complex (TTMTR). Payload-class satellites include a variety of spacecraft equipped with specific instruments for various scientific and technological missions. These include communications satellites like Starlink; space stations such as the ISS; scientific satellites like the Hubble; Earth observation satellites from companies like Planet Labs, Umbra, and HawkEye 360; GPS; miniature CubeSats for education and research; and military/defense satellites.

Loading next visibility...
Identifier
31571, 2007-020A
Orbit
LEO
Last TLE update
15 hours ago
Origin
Manufacturer
SS/Loral
Mission
Non-operational Commercial Communications
Bus & Motor
LS-400, LS-400 AOCS
Mass
450 kg wet, 380 kg dry
Launch date (UTC)
2007-05-29 (18 years ago)
Launch vehicle
SOYUZ-FG
Launch site
Tyuratam Missile And Space Complex (TTMTR)
Object type
Payload
Rocket body
Debris
Shape & HBR
Box + 2 Pan, 12 m
Radar Cross Section
5.587 m², Large (>1 m²)

Expand to show TLE details & history

TLE from 15 hours ago
0 GLOBALSTAR M065
1 31571U 07020A   25129.04197237 -.00000048  00000-0  31383-3 0  9992
2 31571  51.9912 345.4141 0009711 218.0894 295.9039 12.62006617828778
Epoch: 2025-05-09T01:00Z
Definitive object data (Epoch: 2025-05-09T01:00:26.412Z)
Latitude
20.32806°
Longitude
-93.54415°
Altitude
1,411.696 km
Speed
7.159 km/s
True Right ascension
09h 54m 40s
True Declination
20° 13' 32"
Sunlit
Object was in daylight at TLE epoch
Visualization TLE readout
Latitude
-9.00614°
Longitude
-71.67335°
Altitude
1,410.299 km
Speed
7.159 km/s
Apparent Right ascension
11h 50m 29s
Apparent Declination
-23° 00' 40"
Sunlit
Object is in full shadow
Visualization observer readout
Local Sidereal Time
00:35:08
Azimuth
32.51° NE
Elevation
-70.636°
Doppler factor
1
Orbital elements
Apogee altitude
1,422.634 km
Perigee altitude
1,407.499 km
Semi-major axis
7,793.204 km
Eccentricity
0.0009711
Inclination
51.9912°
RAAN
345.4141°
Arg. of periapsis
218.0894°
True anomaly
295.80375°
Mean anomaly
295.9039°
Eccentric anomaly
295.85383°
Mean motion
3.15478 °/min
BSTAR
0.00031383
Orbital period
114.11 mins
Loading maneuver chart data...
Loading SW <> Apogee altitude chart data...
Loading historical data...
Loading historical data...
Loading historical data...
Loading historical data...
Loading historical data...
Loading historical data...
Loading historical data...

GLOBALSTAR M065 Visibility forecast

Observer location: undefined°, undefined°

Span
Click to sort rows by Start time (UTC) header in descending order
Start Az.
Max El. time (UTC)
Max El. Az.
Max El.
End time (UTC)
End Az.
16 mins2025-05-09 17:27:40.081Z234.224° WSW2025-05-09 17:35:40.081Z297.515° NW44.782°2025-05-09 17:43:40.081Z51.641° ENE
15 mins2025-05-09 19:29:40.081Z281.162° WNW2025-05-09 19:36:40.081Z346.508° N33.509°2025-05-09 19:44:40.081Z54.968° ENE
14 mins2025-05-09 21:31:40.081Z308.865° NW2025-05-09 21:38:40.081Z16.94° NNE33.023°2025-05-09 21:45:40.081Z78.198° E
16 mins2025-05-09 23:31:40.081Z308.993° NW2025-05-09 23:39:40.081Z70.562° E44.367°2025-05-09 23:47:40.081Z123.502° SE
13 mins2025-05-10 01:32:40.081Z286.328° WNW2025-05-10 01:38:40.081Z231.454° WSW27.979°2025-05-10 01:45:40.081Z176.327° S
5 mins2025-05-10 14:21:40.081Z129.941° SE2025-05-10 14:23:40.081Z115.451° SE12.738°2025-05-10 14:26:40.081Z94.481° ESE
10 mins2025-05-10 16:14:40.081Z207.462° SW2025-05-10 16:21:40.081Z136.426° SSE40.68°2025-05-10 16:24:40.081Z78.176° E
|